Location: Bachas
(43.2439°N, 0.9375°E)
Time: 23:35:13
(UTC+00:00)

Cosmos 2369 Rocket - Pass Details

Date: 18 February 2020
Orbit: 827 x 854 km, 71.0° (Epoch: 04 April)

Event Time Altitude Azimuth Distance (km) Brightness Sun altitude
Exits shadow 04:34:52 - 340° (NNW) 3,066 5.0 -25.4°
Reaches altitude 10° 04:36:26 10° 344° (NNW) 2,492 4.5 -25.1°
Maximum altitude 04:42:01 52° 61° (ENE) 1,054 3.0 -24.1°
Drops below altitude 10° 04:47:34 10° 137° (SE) 2,477 5.1 -23.1°
Sets 04:50:05 0° 142° (SE) 3,407 5.8 -22.6°
